Starlink 11305

operational
NORAD ID: 61247 Int'l Des: 2024-175 Owner: SPXS Country: US Constellation: starlink
LEOCIRCULAR

关于 Starlink 11305

正在加载描述...

实时位置

正在加载3D地球...

即将过境

高度历史

Altitude vs Time

uPlot chart will show altitude changes over time

两行轨道根数

1 61247U 24175E 25259.20014750 -.00005459 00000-0 -40271-4 0 9994
2 61247 53.1594 196.2384 0001427 84.8533 275.2648 15.69682746 55960
Epoch: Sep 16, 2025 • Age: 23 hours

当前状态

高度 363.0 km
速度 7.70 km/s
星下点 41.65°N, 177.21°E
发射日期 Sep 25, 2024
运行时间 0.9 years
类型 internet

技术详情

分类 Payload
质量 960.00 kg
干质量 910.00 kg
总质量 960.00 kg
长度 0.30 m
直径 4.10 m
跨度 29.00 m
形状 Box + pan
制造商 SPXS
平台类型 Starlink V2MD
阶段状态 In Orbit
所有者/国家 SPXS/US

大型星座

Loading constellations...